This demonstration page uses our WeatherBlox Daily Observations layout. Learn more.

Left ArrowRight Arrow

Hourly Observations for February 10, 2017

Temp ( °F °C ) Dew Point ( °F °C ) Humidity (%) Winds ( mph kmh ) Pressure ( in mb ) Visibility ( mi km ) Precip ( " mm )
12:53 am 00:53 Clear 13 -10.6 10 -12.2 88 88 N N/A 30.44 1031 10 16 N/A
1:53 am 01:53 Clear 14 -10 10 -12.2 84 84 N N/A 30.43 1030 10 16 N/A
2:53 am 02:53 Clear 17 -8.3 13 -10.6 84 84 N N/A 30.43 1030 10 16 N/A
3:53 am 03:53 Mostly Cloudy 20 -6.7 13 -10.6 74 74 N N/A 30.41 1030 10 16 N/A
4:53 am 04:53 Cloudy 20 -6.7 13 -10.6 74 74 N N/A 30.40 1030 10 16 N/A
5:53 am 05:53 Cloudy 22 -5.6 12 -11.1 66 66 undefined N/A 30.39 1029 10 16 N/A
6:53 am 06:53 Cloudy 23 -5 11 -11.7 60 60 SSE 5 7 30.39 1029 10 16 N/A
7:53 am 07:53 Cloudy 23 -5 12 -11.1 63 63 VRB 6 9 30.38 1029 10 16 N/A
8:53 am 08:53 Mostly Cloudy 24 -4.4 13 -10.6 62 62 VRB 5 7 30.37 1028 10 16 N/A
9:53 am 09:53 Sunny 26 -3.3 14 -10 60 60 VRB 6 9 30.33 1027 10 16 N/A
10:53 am 10:53 Sunny 29 -1.7 15 -9.4 56 56 SSE 8 13 30.28 1026 10 16 N/A
11:53 am 11:53 Sunny 32 undefined 16 -8.9 52 52 VRB 7 11 30.23 1024 10 16 N/A
12:53 pm 12:53 Sunny 35 1.7 17 -8.3 48 48 VRB 7 11 30.14 1021 10 16 N/A
1:53 pm 13:53 Sunny 41 5 17 -8.3 38 38 S 9 15 30.06 1018 10 16 N/A
2:53 pm 14:53 Sunny 48 8.9 17 -8.3 29 29 SSW 16 26 29.99 1016 10 16 N/A
3:53 pm 15:53 Sunny 50 10 21 -6.1 32 32 SSW 12 19 29.95 1014 10 16 N/A
4:53 pm 16:53 Sunny 50 10 24 -4.4 36 36 SSW 8 13 29.91 1013 10 16 N/A
5:53 pm 17:53 Sunny 50 10 26 -3.3 39 39 S 6 9 29.91 1013 10 16 N/A
6:53 pm 18:53 Clear 46 7.8 26 -3.3 46 46 S 5 7 29.90 1012 10 16 N/A
7:53 pm 19:53 Clear 49 9.4 27 -2.8 43 43 SSW 7 11 29.88 1012 10 16 N/A
8:53 pm 20:53 Clear 50 10 27 -2.8 41 41 SW 7 11 29.88 1012 10 16 N/A
9:53 pm 21:53 Clear 48 8.9 28 -2.2 46 46 SW 6 9 29.89 1012 10 16 N/A
10:53 pm 22:53 Clear 51 10.6 28 -2.2 41 41 SW 6 9 29.88 1012 10 16 N/A
11:53 pm 23:53 Clear 52 11.1 29 -1.7 41 41 SW 7 11 29.89 1012 10 16 N/A

Powered by AerisWeather